| time (UTC) | temp C | wind direction | speed KPH | gust KPH | rain 1hr cm | rain 24hr cm | rain mn cm | humidity % | barometer mb |
| 20260503013828 | 9 | 155 | 0.0 | 1.6 | 0.00 | 0.00 | 0.00 | 54 | 1015.3 |
| 20260503013325 | 9 | 126 | 0.0 | 0.0 | 0.00 | 0.00 | 0.00 | 56 | 1015.6 |
| 20260503012822 | 9 | 159 | 1.6 | 1.6 | 0.00 | 0.00 | 0.00 | 55 | 1015.4 |
| 20260503012320 | 9 | 129 | 0.0 | 0.0 | 0.00 | 0.00 | 0.00 | 55 | 1015.3 |
| 20260503011817 | 9 | 115 | 0.0 | 0.0 | 0.00 | 0.00 | 0.00 | 57 | 1015.4 |
| 20260503011314 | 9 | 114 | 0.0 | 0.0 | 0.00 | 0.00 | 0.00 | 57 | 1015.3 |
| 20260503010810 | 9 | 116 | 0.0 | 0.0 | 0.00 | 0.00 | 0.00 | 59 | 1015.4 |
| 20260503010307 | 10 | 110 | 0.0 | 0.0 | 0.00 | 0.00 | 0.00 | 57 | 1015.3 |
| 20260503005804 | 10 | 109 | 0.0 | 0.0 | 0.00 | 0.00 | 0.00 | 56 | 1015.4 |
| 20260503005304 | 10 | 113 | 0.0 | 0.0 | 0.00 | 0.00 | 0.00 | 55 | 1015.4 |
| 20260503004757 | 10 | 116 | 0.0 | 0.0 | 0.00 | 0.00 | 0.00 | 55 | 1015.3 |
| 20260503004255 | 10 | 122 | 0.0 | 0.0 | 0.00 | 0.00 | 0.00 | 51 | 1015.3 |
| 20260503003753 | 10 | 114 | 0.0 | 0.0 | 0.00 | 0.00 | 0.00 | 50 | 1015.1 |
| 20260503003249 | 11 | 128 | 0.0 | 0.0 | 0.00 | 0.00 | 0.00 | 49 | 1015.5 |
| 20260503002746 | 11 | 126 | 0.0 | 1.6 | 0.00 | 0.00 | 0.00 | 48 | 1015.5 |
| 20260503002243 | 11 | 91 | 0.0 | 0.0 | 0.00 | 0.00 | 0.00 | 49 | 1015.2 |
| 20260503001739 | 11 | 183 | 1.6 | 3.2 | 0.00 | 0.00 | 0.00 | 46 | 1015.4 |
| 20260503001235 | 12 | 85 | 0.0 | 1.6 | 0.00 | 0.00 | 0.00 | 47 | 1015.6 |
| 20260503000734 | 12 | 103 | 1.6 | 1.6 | 0.00 | 0.00 | 0.00 | 45 | 1015.7 |
| 20260503000233 | 12 | 80 | 1.6 | 3.2 | 0.00 | 0.00 | 0.00 | 44 | 1015.5 |
| 20260502235727 | 12 | 112 | 3.2 | 8.0 | 0.00 | 0.00 | 0.00 | 46 | 1015.4 |
| 20260502235226 | 12 | 57 | 3.2 | 4.8 | 0.00 | 0.00 | 0.00 | 46 | 1015.5 |
| 20260502234721 | 12 | 305 | 3.2 | 8.0 | 0.00 | 0.00 | 0.00 | 45 | 1015.8 |
| 20260502234219 | 12 | 310 | 6.4 | 8.0 | 0.00 | 0.00 | 0.00 | 43 | 1015.6 |
| 20260502233714 | 12 | 130 | 1.6 | 4.8 | 0.00 | 0.00 | 0.00 | 46 | 1015.7 |
| 20260502233212 | 12 | 9 | 1.6 | 4.8 | 0.00 | 0.00 | 0.00 | 45 | 1015.6 |
| 20260502232707 | 13 | 92 | 3.2 | 4.8 | 0.00 | 0.00 | 0.00 | 44 | 1015.7 |
| 20260502232205 | 13 | 270 | 4.8 | 4.8 | 0.00 | 0.00 | 0.00 | 45 | 1015.5 |
| 20260502231701 | 12 | 106 | 0.0 | 1.6 | 0.00 | 0.00 | 0.00 | 45 | 1015.9 |
| 20260502231159 | 12 | 114 | 1.6 | 1.6 | 0.00 | 0.00 | 0.00 | 49 | 1015.7 |
| 20260502230658 | 12 | 90 | 0.0 | 1.6 | 0.00 | 0.00 | 0.00 | 46 | 1015.8 |
| 20260502230156 | 13 | 314 | 3.2 | 3.2 | 0.00 | 0.00 | 0.00 | 45 | 1015.9 |
| 20260502225651 | 13 | 253 | 1.6 | 4.8 | 0.00 | 0.00 | 0.00 | 42 | 1015.9 |
| 20260502225149 | 13 | 77 | 1.6 | 3.2 | 0.00 | 0.00 | 0.00 | 45 | 1016.0 |
| 20260502224644 | 13 | 54 | 4.8 | 8.0 | 0.00 | 0.00 | 0.00 | 44 | 1016.1 |
| 20260502224141 | 13 | 94 | 1.6 | 3.2 | 0.00 | 0.00 | 0.00 | 44 | 1016.0 |
| 20260502223639 | 13 | 31 | 3.2 | 4.8 | 0.00 | 0.00 | 0.00 | 46 | 1016.0 |
| 20260502223137 | 13 | 259 | 4.8 | 8.0 | 0.00 | 0.00 | 0.00 | 41 | 1016.0 |
| 20260502222634 | 13 | 79 | 1.6 | 3.2 | 0.00 | 0.00 | 0.00 | 43 | 1015.8 |
| 20260502222131 | 13 | 126 | 3.2 | 4.8 | 0.00 | 0.00 | 0.00 | 42 | 1015.9 |
| 20260502221627 | 15 | 75 | 3.2 | 8.0 | 0.00 | 0.00 | 0.00 | 41 | 1016.0 |
| 20260502221124 | 13 | 87 | 3.2 | 4.8 | 0.00 | 0.00 | 0.00 | 44 | 1016.0 |
| 20260502220620 | 12 | 186 | 1.6 | 1.6 | 0.00 | 0.00 | 0.00 | 44 | 1016.1 |
| 20260502220116 | 13 | 54 | 1.6 | 8.0 | 0.00 | 0.00 | 0.00 | 44 | 1016.2 |
| 20260502215614 | 13 | 173 | 1.6 | 3.2 | 0.00 | 0.00 | 0.00 | 44 | 1016.0 |
| 20260502215110 | 13 | 136 | 3.2 | 3.2 | 0.00 | 0.00 | 0.00 | 42 | 1016.1 |
| 20260502214607 | 13 | 23 | 4.8 | 4.8 | 0.00 | 0.00 | 0.00 | 44 | 1016.0 |
| 20260502214105 | 13 | 299 | 4.8 | 4.8 | 0.00 | 0.00 | 0.00 | 43 | 1016.3 |
| 20260502213602 | 14 | 27 | 3.2 | 4.8 | 0.00 | 0.00 | 0.00 | 46 | 1016.1 |
| 20260502213059 | 13 | 96 | 1.6 | 1.6 | 0.00 | 0.00 | 0.00 | 45 | 1016.2 |
| 20260502212558 | 13 | 210 | 3.2 | 4.8 | 0.00 | 0.00 | 0.00 | 44 | 1016.3 |
| 20260502212055 | 13 | 103 | 1.6 | 8.0 | 0.00 | 0.00 | 0.00 | 46 | 1016.2 |
| 20260502211550 | 12 | 2 | 1.6 | 3.2 | 0.00 | 0.00 | 0.00 | 45 | 1016.4 |
| 20260502211048 | 12 | 143 | 3.2 | 9.7 | 0.00 | 0.00 | 0.00 | 42 | 1016.3 |
| 20260502210545 | 12 | 154 | 3.2 | 8.0 | 0.00 | 0.00 | 0.00 | 43 | 1016.3 |
| 20260502210042 | 12 | 88 | 1.6 | 3.2 | 0.00 | 0.00 | 0.00 | 43 | 1016.4 |
| 20260502205538 | 12 | 37 | 4.8 | 4.8 | 0.00 | 0.00 | 0.00 | 44 | 1016.4 |
| 20260502205036 | 12 | 275 | 3.2 | 8.0 | 0.00 | 0.00 | 0.00 | 44 | 1016.6 |
| 20260502204532 | 13 | 60 | 1.6 | 4.8 | 0.00 | 0.00 | 0.00 | 46 | 1016.6 |
| 20260502204030 | 13 | 269 | 3.2 | 4.8 | 0.00 | 0.00 | 0.00 | 40 | 1016.5 |
| 20260502203527 | 13 | 38 | 3.2 | 8.0 | 0.00 | 0.00 | 0.00 | 45 | 1016.7 |
| 20260502203024 | 13 | 269 | 4.8 | 8.0 | 0.00 | 0.00 | 0.00 | 44 | 1016.7 |
| 20260502202520 | 13 | 57 | 4.8 | 8.0 | 0.00 | 0.00 | 0.00 | 42 | 1016.7 |
| 20260502202019 | 12 | 109 | 1.6 | 8.0 | 0.00 | 0.00 | 0.00 | 47 | 1017.1 |
| 20260502201514 | 13 | 102 | 0.0 | 3.2 | 0.00 | 0.00 | 0.00 | 46 | 1017.1 |
| 20260502201011 | 13 | 42 | 3.2 | 4.8 | 0.00 | 0.00 | 0.00 | 45 | 1017.0 |
| 20260502200507 | 13 | 46 | 4.8 | 11.3 | 0.00 | 0.00 | 0.00 | 45 | 1017.1 |
| 20260502200005 | 14 | 272 | 4.8 | 4.8 | 0.00 | 0.00 | 0.00 | 43 | 1017.0 |
| 20260502195502 | 13 | 137 | 1.6 | 1.6 | 0.00 | 0.00 | 0.00 | 43 | 1017.1 |
| 20260502194958 | 12 | 19 | 6.4 | 8.0 | 0.00 | 0.00 | 0.00 | 46 | 1017.4 |
| 20260502194455 | 12 | 106 | 1.6 | 3.2 | 0.00 | 0.00 | 0.00 | 52 | 1017.4 |
| 20260502193950 | 12 | 345 | 4.8 | 4.8 | 0.00 | 0.00 | 0.00 | 47 | 1017.8 |
| 20260502193448 | 12 | 171 | 6.4 | 9.7 | 0.00 | 0.00 | 0.00 | 45 | 1017.6 |
| 20260502192944 | 11 | 72 | 1.6 | 1.6 | 0.00 | 0.00 | 0.00 | 52 | 1017.6 |
| 20260502192441 | 11 | 261 | 4.8 | 4.8 | 0.00 | 0.00 | 0.00 | 51 | 1017.6 |
| 20260502191938 | 11 | 21 | 3.2 | 4.8 | 0.00 | 0.00 | 0.00 | 49 | 1017.7 |
| 20260502191435 | 11 | 32 | 3.2 | 4.8 | 0.00 | 0.00 | 0.00 | 49 | 1017.9 |
| 20260502190933 | 11 | 356 | 4.8 | 4.8 | 0.00 | 0.00 | 0.00 | 46 | 1017.8 |
| 20260502190430 | 12 | 40 | 3.2 | 8.0 | 0.00 | 0.00 | 0.00 | 44 | 1017.8 |
| 20260502185926 | 13 | 291 | 4.8 | 4.8 | 0.00 | 0.00 | 0.00 | 46 | 1017.7 |
| 20260502185421 | 13 | 64 | 1.6 | 4.8 | 0.00 | 0.00 | 0.00 | 45 | 1017.9 |
| 20260502184919 | 12 | 96 | 3.2 | 9.7 | 0.00 | 0.00 | 0.00 | 50 | 1018.2 |
| 20260502184414 | 12 | 114 | 1.6 | 3.2 | 0.00 | 0.00 | 0.00 | 49 | 1017.9 |
| 20260502183911 | 13 | 5 | 8.0 | 9.7 | 0.00 | 0.00 | 0.00 | 44 | 1018.4 |
| 20260502183407 | 11 | 60 | 3.2 | 4.8 | 0.00 | 0.00 | 0.00 | 51 | 1018.3 |
| 20260502182903 | 11 | 327 | 4.8 | 4.8 | 0.00 | 0.00 | 0.00 | 51 | 1018.3 |
| 20260502182358 | 11 | 28 | 4.8 | 4.8 | 0.00 | 0.00 | 0.00 | 44 | 1018.4 |
| 20260502181855 | 11 | 26 | 6.4 | 12.9 | 0.00 | 0.00 | 0.00 | 45 | 1018.5 |
| 20260502181354 | 11 | 1 | 8.0 | 9.7 | 0.00 | 0.00 | 0.00 | 45 | 1018.3 |
| 20260502180851 | 12 | 321 | 8.0 | 9.7 | 0.00 | 0.00 | 0.00 | 42 | 1018.6 |
| 20260502180348 | 11 | 54 | 6.4 | 11.3 | 0.00 | 0.00 | 0.00 | 46 | 1018.5 |
| 20260502170307 | 12 | 37 | 3.2 | 3.2 | 0.00 | 0.00 | 0.00 | 48 | 1019.0 |
| 20260502164255 | 11 | 326 | 4.8 | 8.0 | 0.00 | 0.00 | 0.00 | 51 | 1019.0 |
| 20260502163750 | 11 | 65 | 3.2 | 8.0 | 0.00 | 0.00 | 0.00 | 45 | 1018.9 |
| 20260502163247 | 11 | 102 | 1.6 | 8.0 | 0.00 | 0.00 | 0.00 | 52 | 1019.1 |
| 20260502162744 | 12 | 84 | 0.0 | 3.2 | 0.00 | 0.00 | 0.00 | 49 | 1019.0 |
| 20260502162241 | 11 | 129 | 3.2 | 4.8 | 0.00 | 0.00 | 0.00 | 44 | 1019.2 |
| 20260502161737 | 11 | 17 | 6.4 | 9.7 | 0.00 | 0.00 | 0.00 | 46 | 1019.2 |
| 20260502161233 | 10 | 95 | 1.6 | 4.8 | 0.00 | 0.00 | 0.00 | 49 | 1019.3 |
| 20260502160732 | 10 | 44 | 1.6 | 4.8 | 0.00 | 0.00 | 0.00 | 50 | 1019.4 |
| 20260502160231 | 10 | 275 | 4.8 | 9.7 | 0.00 | 0.00 | 0.00 | 53 | 1019.3 |
| 20260502152155 | 10 | 129 | 1.6 | 3.2 | 0.00 | 0.00 | 0.00 | 51 | 1019.3 |
| 20260502151652 | 9 | 281 | 3.2 | 8.0 | 0.00 | 0.00 | 0.00 | 50 | 1019.5 |
| 20260502151149 | 10 | 50 | 4.8 | 4.8 | 0.00 | 0.00 | 0.00 | 52 | 1019.4 |
| 20260502150647 | 10 | 104 | 1.6 | 4.8 | 0.00 | 0.00 | 0.00 | 52 | 1019.4 |
| 20260502150143 | 9 | 339 | 1.6 | 3.2 | 0.00 | 0.00 | 0.00 | 51 | 1019.3 |
| 20260502140106 | 7 | 42 | 3.2 | 4.8 | 0.00 | 0.00 | 0.00 | 66 | 1019.7 |
| 20260502130532 | 3 | 116 | 0.0 | 0.0 | 0.00 | 0.00 | 0.00 | 98 | 1019.4 |
| 20260502123515 | 1 | 82 | 0.0 | 0.0 | 0.00 | 0.00 | 0.00 | 99 | 1019.4 |
| 20260502123011 | 1 | 88 | 0.0 | 0.0 | 0.00 | 0.00 | 0.00 | 99 | 1019.4 |
| 20260502122508 | 1 | 89 | 0.0 | 1.6 | 0.00 | 0.00 | 0.00 | 99 | 1019.3 |
| 20260502122006 | 1 | 95 | 0.0 | 0.0 | 0.00 | 0.00 | 0.00 | 99 | 1019.3 |
| 20260502121503 | 0 | 92 | 0.0 | 0.0 | 0.00 | 0.00 | 0.00 | 99 | 1019.2 |
| 20260502121000 | 0 | 99 | 0.0 | 0.0 | 0.00 | 0.00 | 0.00 | 99 | 1019.2 |
| 20260502120456 | 0 | 97 | 0.0 | 0.0 | 0.00 | 0.00 | 0.00 | 99 | 1019.1 |
| 20260502115450 | 0 | 98 | 0.0 | 0.0 | 0.00 | 0.00 | 0.00 | 99 | 1019.2 |
| 20260502114946 | 0 | 97 | 0.0 | 0.0 | 0.00 | 0.00 | 0.00 | 99 | 1019.2 |
| 20260502114443 | 0 | 96 | 0.0 | 0.0 | 0.00 | 0.00 | 0.00 | 99 | 1018.9 |
| 20260502113941 | -1 | 96 | 0.0 | 0.0 | 0.00 | 0.00 | 0.00 | 99 | 1018.8 |
| 20260502113438 | -1 | 94 | 0.0 | 0.0 | 0.00 | 0.00 | 0.00 | 99 | 1018.8 |
| 20260502112937 | -1 | 99 | 0.0 | 0.0 | 0.00 | 0.00 | 0.00 | 99 | 1018.9 |
| 20260502112434 | -1 | 99 | 0.0 | 0.0 | 0.00 | 0.00 | 0.00 | 99 | 1019.0 |
| 20260502111931 | -1 | 99 | 0.0 | 0.0 | 0.00 | 0.00 | 0.00 | 99 | 1018.6 |
| 20260502111428 | -1 | 99 | 0.0 | 0.0 | 0.00 | 0.00 | 0.00 | 99 | 1018.7 |
| 20260502110926 | -1 | 99 | 0.0 | 0.0 | 0.00 | 0.00 | 0.00 | 99 | 1018.8 |
| 20260502110423 | -1 | 97 | 0.0 | 0.0 | 0.00 | 0.00 | 0.00 | 99 | 1018.6 |
| 20260502105920 | -1 | 98 | 0.0 | 0.0 | 0.00 | 0.00 | 0.00 | 99 | 1018.8 |
| 20260502105417 | -1 | 98 | 0.0 | 0.0 | 0.00 | 0.00 | 0.00 | 99 | 1018.8 |
| 20260502104915 | -1 | 97 | 0.0 | 0.0 | 0.00 | 0.00 | 0.00 | 99 | 1018.6 |
| 20260502104407 | -1 | 96 | 0.0 | 0.0 | 0.00 | 0.00 | 0.00 | 99 | 1018.4 |
| 20260502103904 | -1 | 96 | 0.0 | 0.0 | 0.00 | 0.00 | 0.00 | 99 | 1018.5 |
| 20260502103402 | -1 | 96 | 0.0 | 0.0 | 0.00 | 0.00 | 0.00 | 99 | 1018.7 |
| 20260502102858 | -1 | 96 | 0.0 | 0.0 | 0.00 | 0.00 | 0.00 | 99 | 1018.7 |
| 20260502102355 | -1 | 94 | 0.0 | 0.0 | 0.00 | 0.00 | 0.00 | 99 | 1018.6 |
| 20260502101852 | -1 | 94 | 0.0 | 0.0 | 0.00 | 0.00 | 0.00 | 99 | 1018.6 |
| 20260502101351 | -1 | 95 | 0.0 | 0.0 | 0.00 | 0.00 | 0.00 | 99 | 1018.6 |
| 20260502100849 | -1 | 96 | 0.0 | 0.0 | 0.00 | 0.00 | 0.00 | 99 | 1018.7 |
| 20260502100348 | -1 | 96 | 0.0 | 0.0 | 0.00 | 0.00 | 0.00 | 99 | 1018.7 |
| 20260502091321 | -1 | 94 | 0.0 | 0.0 | 0.00 | 0.00 | 0.00 | 99 | 1018.6 |
| 20260502090819 | -1 | 97 | 0.0 | 0.0 | 0.00 | 0.00 | 0.00 | 99 | 1018.5 |
| 20260502090315 | -1 | 94 | 0.0 | 0.0 | 0.00 | 0.00 | 0.00 | 99 | 1018.6 |
| 20260502071211 | -1 | 101 | 0.0 | 0.0 | 0.00 | 0.00 | 0.00 | 99 | 1018.5 |
| 20260502070709 | -1 | 102 | 0.0 | 0.0 | 0.00 | 0.00 | 0.00 | 99 | 1018.7 |
| 20260502070206 | 0 | 93 | 0.0 | 0.0 | 0.00 | 0.00 | 0.00 | 99 | 1018.7 |
| 20260502065705 | 0 | 99 | 0.0 | 0.0 | 0.00 | 0.00 | 0.00 | 99 | 1018.7 |
| 20260502065202 | 0 | 99 | 0.0 | 0.0 | 0.00 | 0.00 | 0.00 | 99 | 1018.9 |
| 20260502064701 | 0 | 93 | 0.0 | 0.0 | 0.00 | 0.00 | 0.00 | 99 | 1018.7 |
| 20260502064157 | 0 | 103 | 0.0 | 0.0 | 0.00 | 0.00 | 0.00 | 99 | 1018.9 |
| 20260502063655 | 0 | 98 | 0.0 | 0.0 | 0.00 | 0.00 | 0.00 | 98 | 1018.9 |
| 20260502063153 | 0 | 95 | 0.0 | 0.0 | 0.00 | 0.00 | 0.00 | 98 | 1019.1 |
| 20260502062650 | 0 | 98 | 0.0 | 0.0 | 0.00 | 0.00 | 0.00 | 98 | 1018.8 |
| 20260502062147 | 0 | 90 | 0.0 | 0.0 | 0.00 | 0.00 | 0.00 | 98 | 1019.1 |
| 20260502061645 | 0 | 95 | 0.0 | 0.0 | 0.00 | 0.00 | 0.00 | 98 | 1019.0 |
| 20260502061143 | 0 | 95 | 0.0 | 0.0 | 0.00 | 0.00 | 0.00 | 98 | 1018.8 |
| 20260502060643 | 0 | 94 | 0.0 | 0.0 | 0.00 | 0.00 | 0.00 | 98 | 1019.1 |
| 20260502060140 | 0 | 95 | 0.0 | 0.0 | 0.00 | 0.00 | 0.00 | 97 | 1019.1 |
| 20260502055637 | 0 | 95 | 0.0 | 0.0 | 0.00 | 0.00 | 0.00 | 97 | 1019.0 |
| 20260502055135 | 0 | 95 | 0.0 | 0.0 | 0.00 | 0.00 | 0.00 | 97 | 1019.0 |
| 20260502054634 | 0 | 94 | 0.0 | 0.0 | 0.00 | 0.00 | 0.00 | 97 | 1019.0 |
| 20260502054131 | 0 | 92 | 0.0 | 0.0 | 0.00 | 0.00 | 0.00 | 97 | 1018.9 |
| 20260502053628 | 0 | 97 | 0.0 | 0.0 | 0.00 | 0.00 | 0.00 | 96 | 1019.2 |
| 20260502053125 | 0 | 95 | 0.0 | 0.0 | 0.00 | 0.00 | 0.00 | 96 | 1018.9 |
| 20260502052624 | 0 | 97 | 0.0 | 0.0 | 0.00 | 0.00 | 0.00 | 96 | 1019.2 |
| 20260502052122 | 0 | 96 | 0.0 | 0.0 | 0.00 | 0.00 | 0.00 | 96 | 1019.1 |
| 20260502051619 | 0 | 96 | 0.0 | 0.0 | 0.00 | 0.00 | 0.00 | 95 | 1019.1 |
| 20260502051117 | 0 | 96 | 0.0 | 0.0 | 0.00 | 0.00 | 0.00 | 95 | 1019.0 |
| 20260502050614 | 0 | 95 | 0.0 | 0.0 | 0.00 | 0.00 | 0.00 | 95 | 1019.0 |
| 20260502050110 | 0 | 95 | 0.0 | 0.0 | 0.00 | 0.00 | 0.00 | 95 | 1019.0 |
| 20260502045606 | 0 | 95 | 0.0 | 0.0 | 0.00 | 0.03 | 0.03 | 95 | 1019.0 |
| 20260502045104 | 0 | 95 | 0.0 | 0.0 | 0.00 | 0.03 | 0.03 | 95 | 1019.3 |
| 20260502044600 | 0 | 96 | 0.0 | 0.0 | 0.00 | 0.03 | 0.03 | 94 | 1019.3 |
| 20260502044057 | 0 | 96 | 0.0 | 0.0 | 0.00 | 0.03 | 0.03 | 94 | 1019.1 |
| 20260502043555 | 0 | 94 | 0.0 | 0.0 | 0.00 | 0.03 | 0.03 | 94 | 1019.2 |
| 20260502043050 | 0 | 96 | 0.0 | 0.0 | 0.00 | 0.03 | 0.03 | 94 | 1019.2 |
| 20260502042545 | 0 | 97 | 0.0 | 0.0 | 0.00 | 0.03 | 0.03 | 93 | 1019.1 |
| 20260502042043 | 0 | 102 | 0.0 | 0.0 | 0.00 | 0.03 | 0.03 | 93 | 1019.1 |
| 20260502041541 | 0 | 96 | 0.0 | 0.0 | 0.00 | 0.03 | 0.03 | 92 | 1019.2 |
| 20260502041038 | 0 | 96 | 0.0 | 0.0 | 0.00 | 0.03 | 0.03 | 92 | 1018.9 |
| 20260502040534 | 0 | 96 | 0.0 | 0.0 | 0.00 | 0.03 | 0.03 | 91 | 1019.1 |
| 20260502040031 | 0 | 95 | 0.0 | 0.0 | 0.00 | 0.03 | 0.03 | 91 | 1019.0 |
| 20260502035527 | 1 | 95 | 0.0 | 0.0 | 0.00 | 0.03 | 0.03 | 90 | 1019.0 |
| 20260502035025 | 1 | 96 | 0.0 | 0.0 | 0.00 | 0.03 | 0.03 | 89 | 1018.9 |
| 20260502034523 | 1 | 95 | 0.0 | 0.0 | 0.00 | 0.03 | 0.03 | 89 | 1018.7 |
| 20260502034021 | 1 | 96 | 0.0 | 0.0 | 0.00 | 0.03 | 0.03 | 88 | 1019.0 |
| 20260502033519 | 1 | 96 | 0.0 | 0.0 | 0.00 | 0.03 | 0.03 | 88 | 1018.7 |
| 20260502033016 | 1 | 96 | 0.0 | 0.0 | 0.00 | 0.03 | 0.03 | 87 | 1018.8 |
| 20260502032511 | 1 | 95 | 0.0 | 0.0 | 0.00 | 0.03 | 0.03 | 87 | 1018.7 |
| 20260502032009 | 2 | 96 | 0.0 | 0.0 | 0.00 | 0.03 | 0.03 | 86 | 1018.8 |
| 20260502031507 | 2 | 95 | 0.0 | 0.0 | 0.00 | 0.03 | 0.03 | 85 | 1019.0 |
| 20260502031004 | 2 | 95 | 0.0 | 0.0 | 0.00 | 0.03 | 0.03 | 84 | 1018.7 |
| 20260502030503 | 2 | 96 | 0.0 | 0.0 | 0.00 | 0.03 | 0.03 | 84 | 1018.8 |
| 20260502030000 | 2 | 91 | 0.0 | 0.0 | 0.00 | 0.03 | 0.03 | 83 | 1018.7 |
| 20260502025457 | 2 | 89 | 0.0 | 1.6 | 0.00 | 0.03 | 0.03 | 83 | 1018.6 |
| 20260502024955 | 2 | 86 | 0.0 | 0.0 | 0.00 | 0.03 | 0.03 | 83 | 1018.8 |
| 20260502024452 | 2 | 91 | 0.0 | 0.0 | 0.00 | 0.03 | 0.03 | 83 | 1018.7 |
| 20260502023951 | 2 | 79 | 0.0 | 1.6 | 0.00 | 0.03 | 0.03 | 83 | 1018.5 |
| 20260502023448 | 2 | 88 | 1.6 | 3.2 | 0.00 | 0.03 | 0.03 | 83 | 1018.5 |
| 20260502022945 | 2 | 67 | 1.6 | 1.6 | 0.00 | 0.03 | 0.03 | 83 | 1018.5 |
| 20260502022441 | 3 | 84 | 1.6 | 1.6 | 0.00 | 0.03 | 0.03 | 83 | 1018.6 |
| 20260502021939 | 3 | 81 | 1.6 | 4.8 | 0.00 | 0.03 | 0.03 | 82 | 1018.5 |
| 20260502021436 | 3 | 73 | 1.6 | 3.2 | 0.00 | 0.03 | 0.03 | 82 | 1018.4 |
| 20260502020933 | 3 | 52 | 4.8 | 4.8 | 0.00 | 0.03 | 0.03 | 82 | 1018.4 |
| 20260502020431 | 3 | 88 | 3.2 | 4.8 | 0.00 | 0.03 | 0.03 | 81 | 1018.1 |
| 20260502015927 | 3 | 65 | 1.6 | 3.2 | 0.00 | 0.03 | 0.03 | 80 | 1017.9 |
| 20260502015425 | 3 | 80 | 1.6 | 3.2 | 0.00 | 0.03 | 0.03 | 78 | 1018.1 |
| 20260502014922 | 3 | 60 | 3.2 | 3.2 | 0.00 | 0.03 | 0.03 | 76 | 1018.2 |
| 20260502014419 | 3 | 77 | 0.0 | 3.2 | 0.00 | 0.03 | 0.03 | 75 | 1018.1 |
| 20260502013915 | 3 | 84 | 1.6 | 3.2 | 0.00 | 0.03 | 0.03 | 74 | 1017.9 |